When you browse on this site, cookies collect data to enhance your experience and personalize the content and advertising you see.
Visit our Privacy Policy to learn more. By continuing to use the site, you agree to this use of cookies and data.
  • In Latvia
  • List of Countries
  • For 7 days
  • Water Temperature
  • Satellite Maps
  • Weather Map
  • Weather Widgets
  • user-avatar
    Login

    Hourly Weather Cobán

    Today, 23 April, Tuesday

    Time Temperature Precipitation Wind Pressure Humidity
    00:00 +18°C° 0 mm 1 mps 655 mmHg 92%
    01:00 +16°C° 0 mm 1 mps 654 mmHg 92%
    02:00 +15°C° 0 mm 0 mps 654 mmHg 93%
    03:00 +15°C° 0 mm 0 mps 654 mmHg 94%
    04:00 +14°C° 0 mm 0 mps 654 mmHg 94%
    05:00 +14°C° 0 mm 0 mps 653 mmHg 94%
    06:00 +14°C° 0 mm 0 mps 653 mmHg 93%
    07:00 +18°C° 0 mm 0 mps 655 mmHg 79%
    08:00 +21°C° 0 mm 0 mps 656 mmHg 65%
    09:00 +25°C° 0 mm 0 mps 657 mmHg 51%
    10:00 +28°C° 0 mm 1 mps 657 mmHg 46%
    11:00 +29°C° 0 mm 1 mps 657 mmHg 42%
    12:00 +31°C° 0 mm 1 mps 657 mmHg 37%
    13:00 +30°C° 0 mm 2 mps 656 mmHg 39%
    14:00 +30°C° 0 mm 2 mps 655 mmHg 41%
    15:00 +29°C° 0 mm 2 mps 654 mmHg 42%
    16:00 +28°C° 0 mm 2 mps 654 mmHg 49%
    17:00 +26°C° 0 mm 1 mps 653 mmHg 55%
    18:00 +24°C° 0 mm 1 mps 653 mmHg 61%
    19:00 +23°C° 0 mm 1 mps 653 mmHg 69%
    20:00 +21°C° 0 mm 1 mps 653 mmHg 76%
    21:00 +20°C° 0 mm 1 mps 654 mmHg 83%
    22:00 +19°C° 0 mm 1 mps 654 mmHg 84%
    23:00 +19°C° 0 mm 1 mps 654 mmHg 86%

    Tomorrow, 24 April, Wednesday

    Time Temperature Precipitation Wind Pressure Humidity
    00:00 +19°C° 0 mm 1 mps 654 mmHg 88%
    01:00 +16°C° 0 mm 0 mps 653 mmHg 88%
    02:00 +16°C° 0 mm 0 mps 653 mmHg 89%
    03:00 +16°C° 0 mm 0 mps 652 mmHg 90%
    04:00 +16°C° 0 mm 0 mps 652 mmHg 90%
    05:00 +16°C° 0 mm 0 mps 652 mmHg 89%
    06:00 +15°C° 0 mm 0 mps 653 mmHg 89%
    07:00 +19°C° 0 mm 0 mps 654 mmHg 76%
    08:00 +22°C° 0 mm 0 mps 655 mmHg 62%
    09:00 +26°C° 0 mm 0 mps 656 mmHg 49%
    10:00 +29°C° 0 mm 1 mps 656 mmHg 45%
    11:00 +31°C° 0 mm 1 mps 656 mmHg 41%
    12:00 +32°C° 0 mm 1 mps 656 mmHg 37%
    13:00 +32°C° 0 mm 1 mps 655 mmHg 38%
    14:00 +31°C° 0 mm 2 mps 655 mmHg 39%
    15:00 +31°C° 0 mm 2 mps 654 mmHg 40%
    16:00 +29°C° 0.1 mm 1 mps 653 mmHg 47%
    17:00 +27°C° 0.1 mm 1 mps 653 mmHg 53%
    18:00 +25°C° 0.1 mm 1 mps 652 mmHg 60%
    19:00 +24°C° 0 mm 1 mps 653 mmHg 65%
    20:00 +23°C° 0 mm 1 mps 653 mmHg 69%
    21:00 +22°C° 0 mm 1 mps 653 mmHg 74%
    22:00 +22°C° 0 mm 1 mps 653 mmHg 76%
    23:00 +21°C° 0 mm 1 mps 653 mmHg 78%

    Day after tomorrow, 25 April, Thursday

    Time Temperature Precipitation Wind Pressure Humidity
    00:00 +21°C° 0 mm 1 mps 653 mmHg 80%
    01:00 +21°C° 0 mm 1 mps 653 mmHg 81%
    02:00 +20°C° 0 mm 1 mps 652 mmHg 82%
    03:00 +20°C° 0 mm 1 mps 652 mmHg 83%
    04:00 +19°C° 0 mm 1 mps 652 mmHg 83%
    05:00 +19°C° 0 mm 1 mps 652 mmHg 83%
    06:00 +19°C° 0 mm 1 mps 652 mmHg 83%
    07:00 +22°C° 0 mm 1 mps 653 mmHg 71%
    08:00 +26°C° 0 mm 1 mps 654 mmHg 59%
    09:00 +29°C° 0 mm 1 mps 655 mmHg 46%
    10:00 +31°C° 0 mm 1 mps 656 mmHg 41%
    11:00 +34°C° 0 mm 1 mps 656 mmHg 36%
    12:00 +36°C° 0 mm 1 mps 656 mmHg 30%
    13:00 +35°C° 0 mm 1 mps 655 mmHg 33%
    14:00 +33°C° 0 mm 1 mps 654 mmHg 36%
    15:00 +32°C° 0 mm 2 mps 653 mmHg 39%
    16:00 +30°C° 0.1 mm 1 mps 653 mmHg 45%
    17:00 +29°C° 0.1 mm 1 mps 653 mmHg 51%
    18:00 +25°C° 0.1 mm 0 mps 653 mmHg 56%
    19:00 +24°C° 0 mm 0 mps 653 mmHg 60%
    20:00 +23°C° 0 mm 0 mps 654 mmHg 63%
    21:00 +24°C° 0 mm 1 mps 654 mmHg 66%
    22:00 +23°C° 0.1 mm 1 mps 654 mmHg 69%
    23:00 +23°C° 0.1 mm 1 mps 655 mmHg 73%

    26 April, Friday

    Time Temperature Precipitation Wind Pressure Humidity
    00:00 +22°C° 0.1 mm 1 mps 655 mmHg 77%
    01:00 +21°C° 0.1 mm 1 mps 654 mmHg 79%
    02:00 +21°C° 0.1 mm 1 mps 654 mmHg 81%
    03:00 +20°C° 0.1 mm 1 mps 653 mmHg 83%
    04:00 +20°C° 0.1 mm 1 mps 653 mmHg 84%
    05:00 +20°C° 0.1 mm 1 mps 654 mmHg 86%
    06:00 +20°C° 0.1 mm 1 mps 654 mmHg 88%
    07:00 +20°C° 0.3 mm 1 mps 654 mmHg 87%
    08:00 +19°C° 0.3 mm 0 mps 655 mmHg 87%
    09:00 +19°C° 0.3 mm 0 mps 655 mmHg 87%
    10:00 +24°C° 0.1 mm 1 mps 655 mmHg 77%
    11:00 +26°C° 0.1 mm 1 mps 656 mmHg 66%
    12:00 +29°C° 0.1 mm 1 mps 656 mmHg 56%
    13:00 +29°C° 0.6 mm 1 mps 655 mmHg 54%
    14:00 +29°C° 0.6 mm 2 mps 655 mmHg 52%
    15:00 +29°C° 0.6 mm 2 mps 654 mmHg 51%
    16:00 +27°C° 1 mm 2 mps 654 mmHg 59%
    17:00 +26°C° 1 mm 1 mps 654 mmHg 68%
    18:00 +24°C° 1 mm 1 mps 654 mmHg 76%
    19:00 +23°C° 1 mm 1 mps 654 mmHg 81%
    20:00 +22°C° 1 mm 1 mps 655 mmHg 86%
    21:00 +21°C° 1 mm 1 mps 655 mmHg 91%
    22:00 +20°C° 0.2 mm 1 mps 655 mmHg 92%
    23:00 +20°C° 0.2 mm 1 mps 655 mmHg 93%

    27 April, Saturday

    Time Temperature Precipitation Wind Pressure Humidity
    00:00 +19°C° 0.2 mm 1 mps 654 mmHg 95%
    01:00 +17°C° 0 mm 0 mps 654 mmHg 95%
    02:00 +17°C° 0 mm 0 mps 654 mmHg 96%
    03:00 +17°C° 0 mm 0 mps 653 mmHg 97%
    04:00 +16°C° 0 mm 0 mps 654 mmHg 97%
    05:00 +16°C° 0 mm 0 mps 654 mmHg 97%
    06:00 +16°C° 0 mm 0 mps 654 mmHg 97%
    07:00 +18°C° 0 mm 0 mps 655 mmHg 89%
    08:00 +19°C° 0 mm 0 mps 655 mmHg 81%
    09:00 +21°C° 0 mm 0 mps 656 mmHg 73%
    10:00 +25°C° 0 mm 1 mps 656 mmHg 61%
    11:00 +28°C° 0 mm 1 mps 656 mmHg 49%
    12:00 +30°C° 0 mm 1 mps 656 mmHg 37%
    13:00 +30°C° 0 mm 1 mps 655 mmHg 37%
    14:00 +30°C° 0 mm 2 mps 654 mmHg 37%
    15:00 +30°C° 0 mm 2 mps 653 mmHg 36%
    16:00 +28°C° 0 mm 1 mps 653 mmHg 43%
    17:00 +26°C° 0 mm 1 mps 653 mmHg 49%
    18:00 +24°C° 0 mm 1 mps 653 mmHg 56%
    19:00 +22°C° 0 mm 1 mps 653 mmHg 60%
    20:00 +19°C° 0 mm 0 mps 653 mmHg 64%
    21:00 +17°C° 0 mm 0 mps 654 mmHg 68%
    22:00 +17°C° 0 mm 0 mps 653 mmHg 69%
    23:00 +16°C° 0 mm 0 mps 653 mmHg 69%

    28 April, Sunday

    Time Temperature Precipitation Wind Pressure Humidity
    00:00 +16°C° 0 mm 0 mps 653 mmHg 70%
    01:00 +16°C° 0 mm 0 mps 653 mmHg 72%
    02:00 +15°C° 0 mm 0 mps 652 mmHg 73%
    03:00 +15°C° 0 mm 0 mps 652 mmHg 74%
    04:00 +14°C° 0 mm 0 mps 652 mmHg 76%
    05:00 +14°C° 0 mm 0 mps 653 mmHg 77%
    06:00 +14°C° 0 mm 0 mps 653 mmHg 79%
    07:00 +17°C° 0 mm 0 mps 654 mmHg 69%
    08:00 +21°C° 0 mm 0 mps 655 mmHg 58%
    09:00 +24°C° 0 mm 0 mps 656 mmHg 48%
    10:00 +28°C° 0 mm 1 mps 656 mmHg 43%
    11:00 +29°C° 0 mm 1 mps 656 mmHg 39%
    12:00 +31°C° 0 mm 1 mps 656 mmHg 34%
    13:00 +31°C° 0 mm 2 mps 655 mmHg 33%
    14:00 +30°C° 0 mm 2 mps 654 mmHg 31%
    15:00 +30°C° 0 mm 2 mps 653 mmHg 30%
    16:00 +28°C° 0 mm 2 mps 653 mmHg 36%
    17:00 +26°C° 0 mm 1 mps 653 mmHg 43%
    18:00 +24°C° 0 mm 1 mps 653 mmHg 49%
    19:00 +22°C° 0 mm 1 mps 653 mmHg 53%
    20:00 +21°C° 0 mm 1 mps 653 mmHg 57%
    21:00 +17°C° 0 mm 0 mps 654 mmHg 60%
    22:00 +17°C° 0 mm 0 mps 654 mmHg 63%
    23:00 +16°C° 0 mm 0 mps 654 mmHg 66%
    Show more